This is the latest recevied weather packets stored in our database for station/object OE8NDR-11. If no packets are shown the sender has not sent any weather packets the latest 10 day(s).
| Time | Temp. | Humidity | Pressure | Rain* | Wind** | Luminosity | Snow |
|---|---|---|---|---|---|---|---|
| 1777711700 | 16.67° C | 40% | 1021.2 hPa | 0 mm | - | - | - |
| 1777711400 | 16.67° C | 41% | 1021.2 hPa | 0 mm | - | - | - |
| 1777711100 | 16.67° C | 42% | 1021.2 hPa | 0 mm | - | - | - |
| 1777710800 | 16.67° C | 41% | 1021.3 hPa | 0 mm | - | - | - |
| 1777710500 | 16.11° C | 44% | 1021.4 hPa | 0 mm | - | - | - |
| 1777710200 | 16.11° C | 41% | 1021.3 hPa | 0 mm | - | - | - |
| 1777709900 | 15.56° C | 43% | 1021.4 hPa | 0 mm | - | - | - |
| 1777709600 | 16.11° C | 42% | 1021.6 hPa | 0 mm | - | - | - |
| 1777709300 | 15.56° C | 45% | 1021.6 hPa | 0 mm | - | - | - |
| 1777709000 | 15.56° C | 42% | 1021.6 hPa | 0 mm | - | - | - |
| 1777708700 | 15.56° C | 45% | 1021.6 hPa | 0 mm | - | - | - |
| 1777708400 | 15° C | 44% | 1021.6 hPa | 0 mm | - | - | - |
| 1777708100 | 15° C | 45% | 1021.7 hPa | 0 mm | - | - | - |
| 1777707800 | 15° C | 44% | 1021.7 hPa | 0 mm | - | - | - |
| 1777707500 | 15° C | 44% | 1021.8 hPa | 0 mm | - | - | - |
| 1777707200 | 15° C | 45% | 1021.9 hPa | 0 mm | - | - | - |
| 1777706900 | 15° C | 45% | 1021.8 hPa | 0 mm | - | - | - |
| 1777706600 | 14.44° C | 45% | 1021.8 hPa | 0 mm | - | - | - |
| 1777706300 | 14.44° C | 45% | 1021.8 hPa | 0 mm | - | - | - |
| 1777706000 | 14.44° C | 46% | 1021.8 hPa | 0 mm | - | - | - |
| 1777705700 | 14.44° C | 45% | 1021.7 hPa | 0 mm | - | - | - |
| 1777705400 | 14.44° C | 46% | 1021.6 hPa | 0 mm | - | - | - |
| 1777705100 | 14.44° C | 46% | 1021.8 hPa | 0 mm | - | - | - |
| 1777704801 | 14.44° C | 45% | 1021.8 hPa | 0 mm | - | - | - |
| 1777704500 | 14.44° C | 47% | 1021.8 hPa | 0 mm | - | - | - |
* Rain latest hour (hover to see other rain measurements)
** Current wind speed in m/s (hover to see current wind gust speed)